Preview of NWS' New Version of Forecast
This preview is not operational and should not be used for support decisions.
Latest weather observations around

Los Angeles, Los Angeles International Airport (KLAX)

Using International System of Units (Switch to English Units)
Date/ Time (PDT) Wind (kph) Vis. (km) Weather Sky Cond. Temp (°C) Rel. Humidity Wind Chill (°C) Heat Index (°C) Pressure Precip. (cm)
Air Dwpt 6 hour Altimeter (hPa) Sea level (hPa) 1 hr 3 hr 6 hr
Max Min
Jun 18 21:53 W 15 16.09 Cloudy OVC011 18 14     81%     1015.6 1015.3      
Jun 18 20:53 WSW 13 16.09 Cloudy OVC012 18 14     81%     1014.9 1014.7      
Jun 18 20:15 W 13 16.09 Cloudy OVC014 18 14     78%     1014.9        
Jun 18 19:53 WSW 15 16.09 Cloudy OVC015 18 14     78%     1014.6 1014.3      
Jun 18 19:31 W 17 16.09 Cloudy OVC015 18 14     78%     1014.6        
Jun 18 18:53 W 18 16.09 Cloudy OVC014 18 14     78%     1014.2 1013.9      
Jun 18 18:51 W 18 16.09 Cloudy OVC014 18 14     77%     1014.2        
Jun 18 17:53 WSW 17 16.09 Mostly Cloudy BKN015 19 14     73%     1013.9 1013.6      
Jun 18 17:30 W 18 16.09 Mostly Cloudy BKN018 20 14     70%     1013.9        
Jun 18 16:53 W 21 16.09 Partly Cloudy SCT016 20 14     70%     1013.9 1013.8      
Jun 18 16:48 W 21 16.09 Partly Cloudy SCT017 20 14     68%     1013.9        
Jun 18 15:53 W 22 16.09 Mostly Cloudy BKN018 21 14     68%     1014.6 1014.2      
Jun 18 15:28 WSW 21 16.09 Mostly Cloudy BKN020 21 14     68%     1014.6        
Jun 18 14:53 W 18 16.09 Mostly Clear FEW022 21 14     66%     1014.9 1014.8      
Jun 18 14:34 W 18 16.09 Mostly Clear FEW024 21 14     63%     1014.9        
Jun 18 13:53 SW 17 14.48 Mostly Cloudy FEW019 BKN025 21 14     68%     1015.2 1015      
Jun 18 12:53 W 17 12.87 Cloudy FEW018 OVC025 20 14     70%     1015.2 1015.1      
Jun 18 11:53 WSW 15 12.87 Cloudy SCT017 OVC021 19 14     73%     1015.6 1015.2      
Jun 18 10:53 W 11 11.27 Cloudy SCT014 OVC018 19 14     73%     1015.2 1014.9      
Jun 18 09:53 Calm 11.27 Cloudy SCT012 OVC017 19 14     75%     1014.9 1014.6      
Jun 18 08:53 Calm 11.27 Cloudy SCT011 OVC015 18 14     78%     1014.6 1014.4      
Jun 18 08:42 Calm 11.27 Cloudy SCT011 OVC015 18 14     78%     1014.6        
Jun 18 07:53 Calm 11.27 Cloudy SCT010 OVC014 18 14     78%     1014.2 1013.9      
Jun 18 06:53 S 8 12.87 Cloudy SCT010 OVC014 17 14     81%     1013.9 1013.5      
Jun 18 05:53 SE 8 12.87 Cloudy SCT010 OVC014 17 13     78%     1013.2 1013      
Jun 18 05:26 SE 8 14.48 Cloudy FEW011 OVC014 17 13     78%     1013.2        
Jun 18 04:53 SSE 9 14.48 Cloudy FEW011 OVC015 17 13     78%     1012.9 1012.4      
Jun 18 03:53 SW 8 16.09 Cloudy OVC015 17 14     81%     1012.5 1012.2      
Jun 18 03:10 W 9 16.09 Cloudy OVC015 18 14     78%     1012.5        
Jun 18 02:53 W 9 16.09 Cloudy OVC014 18 14     78%     1012.5 1012.3      
Jun 18 01:53 WSW 8 16.09 Cloudy OVC013 18 14     78%     1012.5 1012.3      
Jun 18 01:49 WSW 9 16.09 Cloudy OVC013 18 14     77%     1012.5        
Jun 18 00:53 WSW 11 16.09 Cloudy FEW012 OVC015 18 14     78%     1012.5 1012.3      
Jun 17 23:53 SW 9 16.09 Cloudy FEW014 OVC018 18 14     81%     1012.9 1012.6      
Jun 17 22:53 SW 11 16.09 Cloudy FEW014 OVC018 18 14     81%     1012.9 1012.7      
Jun 17 21:53 WSW 11 16.09 Cloudy OVC020 18 14     78%     1012.9 1012.7      
Jun 17 20:53 WSW 11 16.09 Mostly Cloudy BKN021 BKN250 18 14     78%     1012.9 1012.4      
Jun 17 19:53 WSW 13 16.09 Mostly Clear FEW026 FEW250 18 14     76%     1012.2 1012.2      
Jun 17 19:24 WSW 17 16.09 Mostly Clear FEW026 FEW250 19 14     73%     1012.2        
Jun 17 18:53 WSW 15 16.09 Mostly Cloudy BKN026 19 14     73%     1012.2 1011.8      
Jun 17 17:53 W 17 16.09 Mostly Cloudy BKN025 20 14     68%     1011.9 1011.6      
Jun 17 17:21 W 15 16.09 Mostly Cloudy BKN026 21 14     65%     1011.9        
Jun 17 16:53 WSW 13 16.09 Mostly Clear FEW021 21 14     68%     1011.9 1011.8      
Jun 17 15:53 W 15 16.09 Mostly Cloudy BKN030 20 14     68%     1012.2 1012.1      
Jun 17 14:53 W 13 16.09 Cloudy SCT025 OVC031 20 14     70%     1012.5 1012.4      
Jun 17 14:31 WSW 15 16.09 Cloudy OVC031 21 14     68%     1012.5        
Jun 17 13:53 W 13 14.48 Cloudy FEW017 OVC025 20 14     68%     1012.9 1012.7      
Jun 17 12:53 WSW 15 14.48 Cloudy FEW015 OVC023 19 14     71%     1013.2 1012.9      
Jun 17 11:53 W 11 14.48 Cloudy SCT014 OVC020 19 14     73%     1013.2 1012.9      
Jun 17 10:53 W 11 14.48 Cloudy SCT012 OVC018 18 14     78%     1012.9 1012.8      
Jun 17 09:53 WSW 11 14.48 Cloudy SCT013 OVC019 18 14     76%     1012.5 1012.4      
Jun 17 08:53 Calm 14.48 Cloudy BKN017 OVC023 18 14     78%     1012.5 1012.2      
Jun 17 07:53 WSW 8 14.48 Cloudy BKN014 OVC022 17 14     84%     1012.2 1011.9      
Jun 17 07:48 WSW 8 14.48 Cloudy BKN014 OVC021 17 14     83%     1012.2        
Jun 17 06:53 W 13 14.48 Cloudy FEW011 OVC015 17 14     81%     1011.9 1011.6      
Jun 17 05:53 NW 5 14.48 Cloudy FEW013 OVC020 17 14     84%     1011.5 1011.3      
Jun 17 04:53 W 11 14.48 Cloudy FEW011 OVC014 17 14     84%     1011.2 1011.1      
Jun 17 04:49 W 11 14.48 Cloudy FEW011 OVC014 17 14     83%     1011.2        
Jun 17 03:53 W 5 14.48 Cloudy FEW012 OVC015 17 14     84%     1011.2 1010.8      
Jun 17 02:59 WSW 8 16.09 Cloudy FEW012 OVC018 17 14     84%     1011.2        
Jun 17 02:53 WSW 9 16.09 Cloudy BKN012 OVC017 17 14     84%     1011.2 1010.8      
Jun 17 01:53 WSW 8 14.48 Cloudy BKN012 OVC016 17 14     84%     1011.5 1011.2      
Jun 17 01:24 WSW 9 16.09 Cloudy BKN012 OVC017 17 14     84%     1011.9        
Jun 17 00:53 WSW 13 16.09 Cloudy OVC016 17 14     81%     1011.9 1011.6      
Jun 16 23:53 WSW 13 16.09 Cloudy OVC016 17 13     78%     1012.2 1011.9      
Jun 16 22:53 WSW 8 16.09 Clear   17 13     78%     1012.2 1011.9      
Jun 16 21:53 11 16.09 Cloudy OVC019 18 13     75%     1011.9 1011.8      
Jun 16 20:53 WSW 11 16.09 Cloudy OVC016 18 13     75%     1011.5 1011.5      
Jun 16 19:53 W 15 16.09 Cloudy OVC017 18 13     75%     1011.5 1011.2      
Jun 16 18:53 W 17 16.09 Cloudy OVC018 18 14     76%     1011.2 1010.8      
Jun 16 17:53 W 22 16.09 Cloudy OVC018 19 14     75%     1011.2 1010.8      
Jun 16 17:43 W 28 16.09 Cloudy FEW013 OVC018 19 14     75%     1010.8        
Jun 16 16:53 W 26 16.09 Mostly Cloudy BKN011 BKN016 19 15     78%     1011.2 1010.8      
Jun 16 16:29 W 24 16.09 Mostly Cloudy BKN013 BKN021 19 15     76%     1011.2        
Jun 16 16:12 WSW 24 16.09 Mostly Cloudy FEW012 BKN021 21 15     70%     1011.2        
Jun 16 15:53 W 21 16.09 Partly Cloudy SCT023 SCT250 21 15     68%     1011.2 1011      
Jun 16 15:20 WSW 18 16.09 Partly Cloudy SCT024 21 14     68%     1011.5        
Jun 16 14:53 WSW 18 16.09 Cloudy FEW016 OVC024 21 14     68%     1011.9 1011.5      
Jun 16 13:53 W 17 16.09 Cloudy FEW016 OVC024 20 14     70%     1012.2 1011.9      
Jun 16 13:08 WSW 17 16.09 Cloudy FEW011 BKN015 OVC022 19 14     75%     1012.5        
Jun 16 12:53 W 18 16.09 Cloudy FEW011 BKN014 OVC022 19 14     73%     1012.5 1012.3      
Jun 16 11:53 SW 8 16.09 Cloudy SCT011 OVC014 18 15     81%     1012.9 1012.5      
Jun 16 10:53 WSW 13 16.09 Cloudy SCT011 OVC014 18 15     81%     1012.5 1012.3     0
Jun 16 10:27 W 9 16.09 Cloudy BKN010 OVC014 18 15     84%     1012.5        
Jun 16 09:53 W 13 9.66 Fog/Mist BKN009 OVC012 17 15     87%     1012.5 1012.4 0    
Jun 16 08:53 W 13 9.66 Light Drizzle and Fog/Mist BKN008 OVC013 17 15     87%     1012.5 1012.5 0    
Jun 16 07:53 W 15 12.87 Cloudy BKN008 OVC013 17 15     87%     1012.2 1012.2      
Jun 16 07:42 W 17 9.66 Haze BKN008 OVC013 17 14     84%     1012.2        
Jun 16 06:53 8 11.27 Cloudy OVC013 18 14     81%     1011.9 1011.7      
Jun 16 06:26 Calm 12.87 Cloudy OVC014 18 14     78%     1011.9        
Jun 16 05:53 8 16.09 Cloudy OVC015 18 14     78%     1011.9 1011.5      
Jun 16 04:53 NNW 8 16.09 Cloudy OVC016 18 14     78%     1011.5 1011.4      
Jun 16 03:53 NW 9 16.09 Cloudy OVC015 18 13     75%     1011.9 1011.5      
Jun 16 02:53 WNW 8 16.09 Cloudy OVC014 17 13     78%     1011.9 1011.7      
Jun 16 02:21 NW 8 16.09 Cloudy OVC014 17 14     81%     1012.2        
Jun 16 01:53 NW 5 16.09 Cloudy OVC015 17 14     81%     1012.2 1011.9      
Jun 16 00:53 11 16.09 Cloudy OVC015 18 14     76%     1012.9 1012.5      
Jun 15 23:53 WNW 11 16.09 Mostly Cloudy BKN015 18 13     75%     1013.2 1012.8      
Jun 15 22:53 WNW 11 16.09 Mostly Cloudy BKN015 18 14     78%     1013.6 1013.2      
May 15 08:53 SSW 13 12.87 Mostly Cloudy BKN021 17 11     70%     1018 1017.7      
May 14 11:53 WSW 28 12.87 Partly Cloudy FEW027 SCT140 SCT180 18 12     65%     1016.3 1016      
May 14 09:09 9 11.27 Mostly Cloudy SCT018 BKN140 17 12     70%     1015.6        
May 11 17:53 ESE 11 16.09 Mostly Cloudy BKN025 BKN031 17 11     67%     1009.8 1009.6      
Jun 12 02:53 E 9 16.09 Mostly Clear FEW090 FEW220 14 11     81%     1014.9 1014.6      
Jun 10 23:53 SW 9 16.09 Clear   17 14     81%     1011.5 1011.3      
Jun 10 06:53 WSW 9 16.09 Cloudy BKN020 OVC026 17 14     86%     1011.9 1011.6      
Jun 10 05:53 WSW 5 16.09 Mostly Cloudy BKN023 17 14     84%     1011.5 1011.2      
Jun 09 15:53 WSW 22 16.09 Partly Cloudy FEW013 SCT100 21 16     73%     1012.9 1012.6      
Jun 09 12:53 WSW 22 14.48 Mostly Clear FEW017 FEW120 21 13     59%     1014.6 1014.2      
Jun 09 00:53 SSW 5 16.09 Mostly Clear FEW011 16 13     83%     1013.9 1013.7      
Jun 08 16:53 WSW 33 16.09 Clear and Windy   19 14     71%     1014.2 1014.2      
Jun 08 05:53 W 11 6.44 Clear   16 16     97%     1015.6 1015.3 0    
Jun 07 15:53 WSW 21 16.09 Mostly Clear FEW022 20 15     73%     1013.9 1013.7      
Jun 07 12:53 11 11.27 Cloudy OVC016 18 15     81%     1015.2 1015.1      
Jun 07 10:53 WSW 15 9.66 Haze SCT012 OVC014 17 15     87%     1014.9 1014.9     0
Jun 07 09:53 WSW 11 8.05 Fog/Mist BKN013 OVC018 17 15     87%     1014.6 1014.4